Flag for U.S.A. Weather past 2 weeks in Cambridge, Massachusetts, U.S.A.

Now
71 °F

Clear.


Feels Like: 76 °F
Forecast: 66 / 86 °F
Wind: 7 mph from Southwest

Location: Logan International Airport

Current Time: Aug 1, 2015 at 4:47:25 AM

Latest Report: Aug 1, 2015 at 3:54 AM


Visibility: 10 mi

Pressure: 29.75 "Hg

Humidity: 57%

Dew point: 55 °F

Location of CambridgeLocation

Historic Weather in Cambridge — Graph

°F

Cambridge temperature yesterday

Maximum temperature yesterday: 89 °F (at 2:54 PM)
Minimum temperature yesterday: 73 °F (at 1:54 AM)
Average temperature yesterday: 80 °F

Past Weeks' High & Low Weather Summary

 TemperatureHumidityPressure
High92 °F (Jul 29, 5:54 PM)94% (Jul 18, 7:54 AM)30.12 "Hg (Jul 18, 7:54 AM)
Low61 °F (Jul 17, 4:54 AM)29% (Jul 31, 2:54 PM)29.54 "Hg (Jul 21, 6:54 PM)
Average75 °F68%29.86 "Hg
* Reported Jul 17 2:54 AM — Aug 1 2:54 AM, Cambridge, Weather by CustomWeather, © 2015

Note: Actual official high and low records may vary slightly from our data, if they occured in-between our weather recording intervals... More about our weather records

Advertising

Cambridge weather history for previous 24 hours

 ConditionsComfort  
Time TempWeatherWind HumidityBarometerVisibility
2:54 AM
Sat, Aug 1
69 °FPassing clouds.5 mph66%29.77 "Hg10 mi
1:54 AM71 °FClear.No wind63%29.78 "Hg10 mi
12:54 AM73 °FClear.3 mph55%29.80 "Hg10 mi
11:54 PM
Fri, Jul 31
75 °FClear.6 mph52%29.80 "Hg10 mi
10:54 PM78 °FClear.8 mph45%29.80 "Hg10 mi
9:54 PM80 °FClear.8 mph42%29.79 "Hg10 mi
8:54 PM81 °FSunny.12 mph39%29.78 "Hg10 mi
7:54 PM82 °FPassing clouds.13 mph37%29.77 "Hg10 mi
6:54 PM84 °FPassing clouds.13 mph35%29.75 "Hg10 mi
5:54 PM86 °FScattered clouds.16 mph31%29.74 "Hg10 mi
4:54 PM87 °FScattered clouds.16 mph32%29.75 "Hg10 mi
3:54 PM88 °FScattered clouds.18 mph34%29.74 "Hg10 mi
2:54 PM89 °FScattered clouds.16 mph29%29.74 "Hg10 mi
1:54 PM87 °FScattered clouds.12 mph32%29.75 "Hg10 mi
12:54 PM87 °FScattered clouds.16 mph35%29.76 "Hg10 mi
11:54 AM87 °FScattered clouds.17 mph32%29.78 "Hg10 mi
10:54 AM84 °FScattered clouds.13 mph43%29.79 "Hg10 mi
9:54 AM82 °FPassing clouds.7 mph49%29.80 "Hg10 mi
8:54 AM80 °FPassing clouds.10 mph56%29.80 "Hg10 mi
7:54 AM76 °FPassing clouds.12 mph64%29.80 "Hg10 mi
6:54 AM74 °FPassing clouds.9 mph69%29.79 "Hg10 mi
5:54 AM73 °FPassing clouds.10 mph74%29.78 "Hg10 mi
4:54 AM73 °FPassing clouds.7 mph74%29.77 "Hg10 mi
Weather by CustomWeather, © 2015

See weather overviewHow to use our weather pages